Location: Albany
(35.0000°S, 118.0000°E)
Time: 11:10:58
(UTC-04:00)

JAS-1B - Visible Passes

Search period start: 28 June 2016 00:00
Search period end: 08 July 2016 00:00
Orbit: 911 x 1744 km, 99.0° (Epoch: 27 June)

Date Brightness Start Highest point End Pass type
(mag) Time Alt. Az. Time Alt. Az. Time Alt. Az.
28 Jun 8.6 06:43:54 10° N 06:51:03 52° W 06:59:43 10° SSW visible
28 Jun 10.8 16:47:00 10° ESE 16:50:24 12° E 16:53:41 10° ENE visible
28 Jun 8.6 18:32:31 10° SSE 18:42:30 70° ENE 18:51:24 10° N visible
29 Jun 9.1 07:03:26 10° NNW 07:10:19 38° W 07:18:27 10° SSW visible
29 Jun 10.5 17:03:51 10° SE 17:09:56 18° E 17:15:37 10° NE visible
30 Jun 7.9 05:31:09 10° NE 05:38:38 57° ESE 05:47:32 10° S visible
30 Jun 9.6 07:23:19 10° NNW 07:29:40 28° W 07:36:59 10° SW visible
30 Jun 10.2 17:21:47 10° SE 17:29:23 25° E 17:36:19 10° NE visible
01 Jul 7.8 05:49:51 10° NNE 05:57:32 76° ESE 06:06:47 10° S visible
01 Jul 10.0 07:43:40 10° NW 07:49:05 20° W 07:55:09 10° SW visible
01 Jul 9.7 17:40:10 10° SSE 17:48:46 34° E 17:56:28 10° NNE visible
02 Jul 8.0 06:08:47 10° NNE 06:16:32 83° WNW 06:25:53 10° SSW visible
02 Jul 10.4 08:04:51 10° WNW 08:08:35 14° W 08:12:35 10° SW visible
02 Jul 9.3 17:58:48 10° SSE 18:08:05 45° E 18:16:15 10° NNE visible
03 Jul 8.4 06:27:56 10° N 06:35:38 63° W 06:44:53 10° SSW visible
03 Jul 8.8 18:17:38 10° SSE 18:27:18 60° E 18:35:44 10° N visible
04 Jul 8.9 06:47:19 10° NNW 06:54:50 47° W 07:03:44 10° SSW visible
04 Jul 10.7 16:50:11 10° ESE 16:54:24 14° E 16:58:25 10° ENE visible
04 Jul 8.4 18:36:36 10° SSE 18:46:27 77° ENE 18:54:57 10° N visible
05 Jul 9.4 07:06:59 10° NNW 07:14:08 35° W 07:22:25 10° SSW visible
05 Jul 10.4 17:07:31 10° SE 17:13:55 20° E 17:19:46 10° NE visible
06 Jul 8.0 05:34:18 10° NNE 05:42:20 65° ESE 05:51:45 10° S visible
06 Jul 9.8 07:27:00 10° NW 07:33:30 26° W 07:40:52 10° SW visible
06 Jul 10.0 17:25:38 10° SE 17:33:22 27° E 17:40:14 10° NE visible
07 Jul 8.0 05:53:06 10° NNE 06:01:18 84° ESE 06:10:57 10° SSW visible
07 Jul 10.2 07:47:33 10° NW 07:52:57 19° W 07:58:54 10° SW visible
07 Jul 9.5 17:44:07 10° SSE 17:52:43 37° E 18:00:13 10° NNE visible
